Location: Baslieux
(49.3250°N, 3.7121°E)
Time: 16:02:35
(UTC+00:00)

Daily predictions for brighter satellites

Satellite Brightness Start Highest point End
(mag) Time Altitude Azimuth Time Altitude Azimuth Time Altitude Azimuth
NOSS 3-3 (A) 3.9 17:21:22 10° SSW 17:26:22 55° ESE 17:32:20 10° NE
Cosmos 1802 Rocket 4.3 17:27:47 10° NNW 17:34:13 80° W 17:40:38 10° S
Cosmos 2285 Rocket 4.1 17:30:12 10° NNW 17:36:34 57° ENE 17:42:50 10° SE
Cosmos 2233 Rocket 4.0 17:30:50 10° N 17:37:07 72° E 17:43:25 10° SSE
CZ-4 R/B 4.3 17:33:29 10° SSE 17:37:25 64° ENE 17:41:22 10° N
USA 290 2.6 17:34:26 10° SSW 17:37:35 64° WNW 17:40:47 10° NNE
NOSS 0 Rocket 4.0 17:32:51 10° NNW 17:39:10 83° ENE 17:45:24 10° SSE
USA 306 3.8 17:37:56 10° WNW 17:40:36 27° SW 17:42:30 10° SSE
ARIANE 6 FM1 Upper Stage 4.2 17:39:10 10° NNW 17:42:04 19° NNE 17:44:57 10° ENE
NOSS 3-4 (A) 3.9 17:38:29 10° NW 17:44:54 56° NE 17:52:26 10° ESE
NOSS 3-4 (C) 3.9 17:38:45 10° NW 17:45:11 55° NE 17:52:44 10° ESE
Cosmos 1725 Rocket 4.4 17:39:38 10° NNW 17:45:52 72° W 17:52:06 10° S
Cosmos 2151 Rocket 3.7 17:45:06 10° NNW 17:49:37 83° W 17:54:07 10° S
Meteor 1-11 4.3 17:46:21 10° S 17:52:00 89° ESE 17:57:47 10° NNE
Radarsat Rocket 4.0 17:49:21 10° SE 17:55:08 63° ENE 18:01:27 10° NNW
Cosmos 1607 4.1 17:49:19 10° SW 17:55:28 79° NW 18:01:43 10° NE
Cosmos 1455 Rocket 3.4 17:53:10 10° N 17:57:15 40° ENE 18:01:18 10° SE
Cosmos 44 Rocket 4.2 17:54:55 10° S 17:59:07 29° ESE 18:03:11 11° ENE
YAOGAN 1 2.4 17:55:16 10° SSE 17:59:30 75° ENE 18:03:46 10° N
Cosmos 1975 Rocket 4.2 17:56:28 10° SE 17:59:48 22° E 18:03:08 10° NE
Cosmos 2228 3.9 17:56:33 10° NNE 18:00:05 26° ENE 18:03:37 10° SE
PSLV R/B 3.6 17:56:21 10° SE 18:00:19 48° ENE 18:04:17 10° N
COSMO-SKYMED 1 2.7 17:56:41 10° NNE 18:00:39 45° E 18:04:36 10° S
ATLAS 2AS CENTAUR R/B 4.1 17:55:07 10° WNW 18:01:00 29° NNW 18:06:49 10° NE
Cosmos 2297 Rocket 2.4 17:56:23 10° S 18:01:52 53° ESE 18:07:22 10° NE
Cosmos 1782 4.0 17:59:21 10° NNE 18:01:53 18° ENE 18:03:12 15° E
Lacrosse 5 rocket 2.2 18:00:12 10° W 18:03:24 32° NNW 18:06:24 12° NE
DNEPR-1 R/B 4.3 18:00:16 10° NNW 18:04:50 45° NE 18:10:09 10° ESE
SPOT 1/Viking Rocket 4.1 18:01:28 10° S 18:06:31 62° WSW 18:11:37 10° NNW
Cosmos 2061 Rocket 4.2 18:01:10 10° N 18:07:34 81° W 18:13:51 10° S
Aureole 3 Rocket 2.4 18:03:46 10° N 18:07:45 68° ENE 18:10:56 10° SSE
CZ-2D R/B 3.2 18:05:25 10° SSE 18:09:20 82° ENE 18:13:22 10° NNW
Okean 1 Rocket 3.3 18:08:14 10° NNW 18:12:38 73° W 18:16:58 10° S
SL-16 R/B 4.4 18:07:30 10° N 18:12:46 30° WNW 18:18:02 10° WSW
CZ-4C R/B 2.2 18:08:51 10° SW 18:13:09 64° NW 18:18:45 10° NE
Cosmos 1464 Rocket 4.3 18:10:56 10° N 18:17:04 46° ENE 18:23:06 10° SE
Okean 2 Rocket 3.8 18:13:33 10° NNW 18:17:52 56° W 18:22:08 10° S
Cosmos 2344 4.3 18:12:50 10° S 18:19:23 29° ESE 18:23:43 16° ENE
Cosmos 2221 Rocket 3.7 18:15:29 10° SSW 18:19:56 82° W 18:24:29 10° N
Cosmos 1602 4.4 18:17:59 10° SSE 18:19:21 20° SE 18:19:21 20° SE
USA 267 3.5 18:15:08 12° NE 18:21:18 67° NNW 18:27:47 10° WSW
SJ-6B 2.9 18:20:59 10° SE 18:24:13 39° ENE 18:27:28 10° N
Cosmos 1980 4.0 18:24:42 10° NNW 18:30:21 70° WSW 18:35:57 10° SSE
Cosmos 2263 Rocket 3.2 18:25:57 10° SSE 18:30:27 25° ESE 18:31:44 23° E
Cosmos 1025 Rocket 4.0 18:26:24 10° SSW 18:30:35 49° WNW 18:34:50 10° N
Cosmos 2237 Rocket 2.5 18:29:58 10° NNW 18:35:38 69° WSW 18:41:17 10° SSE
Meteor 1-31 Rocket 3.8 18:36:36 24° NE 18:36:36 24° NE 18:38:39 10° N
Meteor 1-27 4.3 18:32:19 10° NNW 18:38:08 89° W 18:43:58 10° S
SeaSat 1 4.4 18:37:45 10° S 18:42:03 31° WSW 18:46:24 10° NW
Cosmos 1570 Rocket 3.9 18:37:53 10° SSW 18:43:10 88° ESE 18:48:27 10° NNE
Resurs 01 Rocket 1.6 18:39:08 10° SSE 18:43:32 84° WSW 18:47:58 10° NNW
SPOT 5 3.3 18:45:52 28° ESE 18:47:54 42° ENE 18:52:42 10° N
NOSS 3-3 (C) 4.3 18:44:48 10° WSW 18:50:06 58° NW 18:55:59 12° NE
DMSP B5D1-3 4.4 18:47:55 10° NNE 18:53:04 86° ESE 18:58:11 10° SSW
Tiangong 0.0 18:53:41 10° SW 18:55:41 18° S 18:55:41 18° S
Cosmos 2227 Rocket 2.1 18:55:33 10° SSW 19:01:08 66° ESE 19:05:16 19° NE
SL-16 R/B 2.2 18:55:58 10° NNW 19:01:36 63° ENE 19:03:58 34° SE
Cosmos 773 Rocket 4.0 18:58:47 10° SSW 19:04:04 81° WNW 19:09:24 10° NNE
Cosmos 1346 Rocket 3.4 19:00:34 10° S 19:02:49 35° S 19:02:49 35° S
Cosmos 2208 Rocket 4.0 18:59:02 10° SSW 19:04:17 86° WNW 19:09:39 10° NNE
Tsikada Rocket 4.2 19:02:16 10° SSE 19:07:58 42° E 19:13:43 10° NNE
CZ-4 R/B 2.8 19:17:56 24° N 19:17:56 24° N 19:19:36 10° N
Okean O Rocket 4.1 19:20:31 10° NNE 19:20:31 10° NNE 19:20:38 10° NNE
ARIANE 6 FM1 Upper Stage 2.9 19:17:48 10° NW 19:21:05 54° N 19:21:05 54° N
CZ-4B R/B 3.5 19:26:08 45° NE 19:26:08 45° NE 19:30:31 10° N
Terra 3.3 19:30:49 24° NNE 19:30:49 24° NNE 19:32:56 10° N
Cosmos 1544 Rocket 3.5 19:25:34 10° NNW 19:29:55 80° W 19:30:03 79° SW
CZ-4B DEB 4.0 19:29:06 58° SE 19:30:08 74° ENE 19:35:36 10° NNW
CSL-04 Debris 4.1 19:30:41 37° SSE 19:32:57 89° WSW 19:38:25 10° NNW
Cosmos 2034 Rocket 4.0 19:28:46 10° NNW 19:34:57 78° W 19:41:08 10° S
Cosmos 1782 4.0 19:33:26 10° NNW 19:36:46 36° W 19:37:19 34° WSW
Cosmos 1975 Rocket 4.3 19:33:09 10° SW 19:37:16 41° WNW 19:41:23 10° N
CSL-04 Rocket 3.7 19:35:11 33° S 19:37:36 76° WSW 19:42:54 10° NNW
TSX-5 4.2 19:32:30 10° NNW 19:37:23 76° NNW 19:37:23 76° NNW
RESURS DK-1 4.4 19:34:25 10° NNW 19:35:40 18° N 19:35:40 18° N
Cosmos 44 Rocket 4.0 19:35:26 10° WSW 19:40:18 54° NW 19:41:49 39° N
Lacrosse 5 rocket 3.2 19:38:01 10° NW 19:39:50 20° NNW 19:39:50 20° NNW
MOS 1 4.2 19:41:21 68° NE 19:41:21 68° NE 19:46:49 10° N
Cosmos 1634 Rocket 3.9 19:36:02 10° N 19:42:23 72° ENE 19:43:02 66° ESE
Cosmos 2297 Rocket 3.7 19:41:05 10° WSW 19:46:10 33° NW 19:51:16 10° NNE
Cosmos 1943 3.6 19:43:53 10° NNW 19:48:32 50° NNE 19:48:32 50° NNE
ATLAS 2AS CENTAUR R/B 4.0 19:48:33 10° NW 19:54:04 25° N 19:55:21 24° NNE
BREEZE-M DEB (TANK) 3.7 19:38:46 10° W 19:55:45 71° S 19:56:30 65° SE
ERS-1 Rocket 4.0 20:02:08 38° NNW 20:02:08 38° NNW 20:05:14 10° NNW
CZ-4C R/B 3.9 19:58:27 10° WNW 20:02:34 24° NNW 20:04:22 21° NNE
BREEZE-M DEB (TANK) 4.2 19:58:04 10° SW 20:02:56 66° SSE 20:04:47 56° E
USA 267 3.9 20:02:29 41° NNE 20:03:50 46° N 20:10:01 10° WNW
Cosmos 2279 Rocket 4.3 19:58:35 10° N 20:03:20 53° NNE 20:03:20 53° NNE
Cosmos 2263 Rocket 2.6 20:08:17 10° SW 20:13:31 61° W 20:13:31 61° W
Cosmos 2344 3.6 20:25:29 10° SW 20:33:04 69° NW 20:33:48 65° N
SL-16 R/B 4.0 20:40:46 10° NW 20:45:15 25° WSW 20:45:53 24° WSW
Cosmos 2227 Rocket 4.0 20:40:49 10° WSW 20:45:37 28° NW 20:47:09 25° NNW
